Погода Березино

Погода Березино : погода сейчас, прогноз погоды и архив. Всё, что Вы хотите узнать о погоде Березино!

Хотите узнать прогноз погоды Березино? Тогда Вам сюда: Погода Березино

Поиск расширенной информации на нашем сайте:

Другие новости

Новости СМИ2

Главная страница сайта

Новости сайта

03.07.2017

Напоминаем, что на нашем специализированном сайте Метеоцентр.Азия вы можете получить высокодетализированные автоматические прогнозы погоды по пунктам России, СНГ и мира в авиационном формате (включающие направление и скорость ветра, видимость, явления погоды, количество и форму облачности, нижнюю и верхнюю границу облачности).


Погода Березино - сегодня

Время (UTC), дата Ветер
(°,м/с) 
Видим.   Явления Облачность Т
(°С)
Тd
(°С)
f(%) Тe
(°С)
Pmin
(гПа)
dP
(гПа)
Po
(мм)
O2
(г/м3)
Тmin Tmax R s Состояние
почвы
00 18.09.17 100 (В) 10 км  слаб. ливневой дождь{гроза}  10/10 500 м кучево-дожд. 
[Cb calv]
+16.9 +15.7 93 +27  1003.1  -4.9  739  277      0.7     
03 18.09.17 210 (ЮЗ) 10 км    9/9 330 м 
[Frnb]
+16.6 +14.7 89 +26  1001.9  -1.3  738  277         
06 18.09.17 250 (З) 6-13{11}  10 км    4/4 300 м 
[St]
+16.6 +12.4 76 +21  1001.8  -0.1  738  278  +15.6       
12 18.09.17 210 (ЮЗ) 7-14{16}  10 км    9/9 1140 м 
[Sc]
+14.1 +7.8 66 +13  1003.3  0.2  739  282           
18 18.09.17 230 (ЮЗ) 8-17{18}  10 км    9/9 900 м 
[Sc]
+12.9 +8.5 75 +11  1003.5  0.1  739  283    +16.8       
00 19.09.17 220 (ЮЗ) 7-14{15}  10 км  {ливн. осадки}  ясно 
+11 +7 76 +9  1009.2  2.9  743  287           
03 19.09.17 260 (З) 4-10{14}  10 км    9/0 средняя 
[Ac und]
+10.7 +7.4 80 +10  1011.9  2.6  745  288      0.0     
06 19.09.17 250 (З) 4{10}  10 км    6/1 600 м средняя 
[St|Ac und]
+11.3 +7.8 79 +11  1014.3  2.5  747  288  +9.7    0.0     
09 19.09.17 240 (ЮЗ) 10 км    8/8 600 м 
[Cu med, cong]
+15.2 +7.6 60 +15  1016.3  2.1  749  284           
12 19.09.17 270 (З) 10 км    8/8 600 м 
[Cu med, cong]
+16.4 +7.8 57 +16  1017.2  749  283           
15 19.09.17 250 (З) 10 км    5/3 1000 м верхняя 
[Cu med, cong|Ci fib]
+16 +7.8 58 +17  1018.2  750  284           
18 19.09.17 тихо ()   10 км    3/0 верхняя 
[Ci fib]
+9.2 +6.8 85 +9  1019.3  0.6  750  291    +17.3       
21 19.09.17 тихо ()   10 км    4/0 средняя, верхняя 
[Ac und|Ci fib]
+8.5 +8.1 97 +9  1020.1  0.8  751  292           
00 20.09.17 тихо ()   10 км    3/0 верхняя 
[Ci fib]
+7.8 +7.4 97 +8  1020.1  -0.1  751  293           
03 20.09.17 030 (СВ) 10 км    9/0 средняя, верхняя 
[Ac lent|Ci fib]
+7.7 +7 95 +9  1020.1  751  293           
06 20.09.17 тихо ()   10 км  слаб. ливневой дождь  9/8 600 м кучево-дожд., средняя 
[Cb calv|Ac As]
+9.4 +8.8 96 +9  1020.3  0.4  751  291  +6.7    0.7     
12 20.09.17 070 (В) 10 км  {ливн. осадки}  9/4 600 м кучево-дожд., средняя 
[Cb calv|Ac und]
+12.9 +11.4 91 +16  1019.4  -1.1  751  287      0.0     
18 20.09.17 060 (СВ) 10 км    9/9 1230 м 
[Sc]
+13.4 +10.3 81 +16  1019.1  0.7  751  286    +14.5     
21 20.09.17 090 (В) 10 км    ясно 
+11.7 +8.9 83 +12  1018.4  -0.8  750  288           
00 21.09.17 060 (СВ) 10 км    9/9 1470 м 
[Sc]
+10.7 +9 89 +11  1018.4  -0.1  750  289           
06 21.09.17 070 (В) 4{10}  10 км  слаб. ливневой дождь  9/6 600 м кучево-дожд., средняя 
[Cb calv|Ac As]
+11.6 +9.4 86 +11  1016.5  -0.4  749  288  +10.5    0.0     
12 21.09.17 100 (В) 4{11}  10 км  {ливн. осадки}  9/4 600 м кучево-дожд., средняя 
[Cb calv|Ac cast]
+18.3 +11.5 65 +22  1013.1  -1.9  746  280      0.0     
18 21.09.17 060 (СВ) 10 км    9/0 средняя 
[Ac und]
+16.2 +12.8 80 +22  1013.8  0.9  747  282    +18.8  0.0     
21 21.09.17 080 (В) 10 км    9/4 600 м кучево-дожд., средняя 
[Cb calv|Ac und]
+16.7 +12.2 75 +21  1014.2  0.4  747  281           
00 22.09.17 090 (В) 2{10}  10 км  в посл. час гроза  9/4 600 м кучево-дожд., средняя 
[Cb calv|Ac und]
+16.8 +11.4 70 +21  1016.4  2.1  749  282           
Время (UTC), дата Ветер
(°,м/с) 
Видим.   Явления Облачность Т
(°С)
Тd
(°С)
f(%) Тe
(°С)
Pmin
(гПа)
dP
(гПа)
Po
(мм)
O2
(г/м3)
Тmin Tmax R s Состояние
почвы

Для получения пояснительной информации подведите курсор к названию столбца.

ПОГОДА Березино - архив

Всё, что Вы хотите узнать о погоде Березино - удобно и подробно!

Выберите нужную дату (начиная с 1 января 2015* года) и нажмите кнопку "Найти".
Будут отображены архивные сводки погоды по пункту Березино, начиная с указанной даты.


Отображать данные в формате CSV (для использования в таблицах Excel)


Внимание! Наш архив погоды предназначен исключительно для личного некоммерческого использования в познавательных целях. Если Вам необходимы официальные справки о состоянии погоды (для производственных, юридических, коммерческих и т.п. целей), обращайтесь в органы Росгидромета.

*Примечание: данная дата относится к архиву по метеостанциям СССР (Россия, СНГ, Балтия).
Архив по метеостанциям Зарубежной Европы и Азии (кроме Китая) хранится 10 дней, по другим регионам земного шара (Китай, Африка, Америка, Австралия, Океания) - 1 день.

Березино - район местоположения метеостанции


Название, широта, долгота, высота метеостанции:
Березино 53.8°ш. 29°д. 154 м над ур. моря [Беларусь]

Дополнительная информация

В oтличие oт бoльшинства пoгoдных сайтoв мы публикуем пoдрoбную метеoинфoрмацию в детальнoм прoфессиoнальнoм фoрмате.

Характеристики температуры и влажнoсти вoздуха измеряются на высoте 2 м в тени вдали oт зданий и деревьев.
Скoрoсть ветра измеряется на высoте 10 м (на урoвне рoста челoвека скoрoсть ветра ниже в 1.5-2 раза). Если метеoстанция нахoдится в гoрoде или в лесу, тo скoрoсть ветра занижена на 2-4 м/с пo сравнению с oткрытым местoм. Скoрoсть ветра над акватoриями крупных рек и oзёр, а также на вершинах хoлмoв на 2-5 м/с выше, чем в oбычных услoвиях.
Атмoсфернoе давление в разных тoчках местнoсти мoжет значительнo oтличаться oт давления на метеoстанции, в зависимoсти oт услoвий рельефа (при пoдъёме на 10 м давление пoнижается примернo на 1 мм рт.ст.).